Flag for U.S.A. Weather past 2 weeks in Milwaukee, Wisconsin, U.S.A.

Now
41 °F

Sunny.


Feels Like: 34 °F
Forecast: 35 / 55 °F
Wind: 12 mph from West

Location: Milwaukee / Timmerman

Current Time: Mar 30, 2015 at 9:23:39 AM

Latest Report: Mar 30, 2015 at 8:45 AM


Visibility: 10 mi

Pressure: 30.00 "Hg

Humidity: 61%

Dew point: 28 °F

Location of MilwaukeeLocation

Historic Weather in Milwaukee — Graph

°F

Milwaukee temperature yesterday

Maximum temperature yesterday: 41 °F (at 5:45 PM)
Minimum temperature yesterday: 27 °F (at 12:15 AM)
Average temperature yesterday: 33 °F

Past Weeks' High & Low Weather Summary

 TemperatureHumidityPressure
High68 °F (Mar 16, 4:45 PM)100% (Mar 25, 5:15 AM)30.37 "Hg (Mar 25, 5:15 AM)
Low14 °F (Mar 28, 6:55 AM)18% (Mar 18, 3:45 PM)29.66 "Hg (Mar 29, 4:45 PM)
Average34 °F60%30.13 "Hg
* Reported Mar 15 7:15 AM — Mar 30 7:45 AM, Milwaukee, Weather by CustomWeather, © 2015

Note: Actual official high and low records may vary slightly from our data, if they occured in-between our weather recording intervals... More about our weather records

Advertising

Milwaukee weather history for previous 24 hours

 ConditionsComfort  
Time TempWeatherWind HumidityBarometerVisibility
7:45 AM
Mon, Mar 30
37 °FSunny.12 mph65%29.98 "Hg10 mi
7:15 AM34 °FClear.8 mph81%29.97 "Hg10 mi
6:55 AM32 °FClear.7 mph80%29.97 "Hg10 mi
6:35 AM34 °FClear.7 mph81%29.97 "Hg10 mi
6:15 AM34 °FClear.8 mph81%29.96 "Hg10 mi
5:55 AM32 °FClear.8 mph87%29.96 "Hg10 mi
5:35 AM32 °FClear.7 mph87%29.95 "Hg10 mi
5:15 AM34 °FClear.6 mph81%29.95 "Hg10 mi
4:55 AM34 °FClear.7 mph81%29.94 "Hg10 mi
4:15 AM36 °FClear.6 mph81%29.93 "Hg10 mi
3:55 AM36 °FPassing clouds.9 mph81%29.92 "Hg10 mi
3:35 AM36 °FClear.7 mph87%29.92 "Hg10 mi
3:15 AM36 °FClear.8 mph87%29.92 "Hg10 mi
2:55 AM36 °FPassing clouds.8 mph87%29.92 "Hg10 mi
2:35 AM37 °FPassing clouds.7 mph81%29.92 "Hg10 mi
2:15 AM37 °FOvercast.7 mph81%29.92 "Hg10 mi
1:55 AM37 °FOvercast.7 mph81%29.92 "Hg10 mi
1:35 AM37 °FOvercast.7 mph81%29.91 "Hg10 mi
1:15 AM37 °FOvercast.6 mph81%29.91 "Hg10 mi
12:55 AM37 °FPassing clouds.6 mph81%29.90 "Hg10 mi
12:15 AM37 °FPassing clouds.9 mph81%29.89 "Hg10 mi
11:55 PM
Sun, Mar 29
39 °FPassing clouds.9 mph75%29.89 "Hg10 mi
11:35 PM37 °FOvercast.8 mph81%29.88 "Hg10 mi
11:15 PM37 °FPassing clouds.7 mph81%29.88 "Hg10 mi
10:55 PM37 °FPassing clouds.7 mph75%29.88 "Hg10 mi
10:15 PM41 °FPassing clouds.12 mph57%29.87 "Hg10 mi
9:55 PM41 °FPassing clouds.23 mph61%29.85 "Hg10 mi
9:15 PM41 °FPassing clouds.23 mph66%29.82 "Hg10 mi
8:45 PM41 °FOvercast.17 mph81%29.78 "Hg10 mi
7:45 PM41 °FOvercast.17 mph81%29.78 "Hg10 mi
5:45 PM41 °FOvercast.23 mph81%29.68 "Hg10 mi
4:45 PM39 °FMostly cloudy.14 mph75%29.66 "Hg7 mi
3:45 PM37 °FOvercast.17 mph75%29.71 "Hg10 mi
2:45 PM36 °FOvercast.22 mph75%29.73 "Hg10 mi
1:45 PM34 °FOvercast.18 mph87%29.77 "Hg10 mi
12:45 PM34 °FLight rain. Fog.26 mph81%29.81 "Hg1 mi
11:50 AM34 °FCloudy.23 mph75%29.81 "Hg10 mi
10:45 AM36 °FLight rain. More clouds than sun.17 mph52%29.90 "Hg7 mi
9:45 AM36 °FPartly sunny.18 mph44%29.93 "Hg10 mi
Weather by CustomWeather, © 2015

See weather overviewHow to use our weather pages